Location: Zagreb
(45.8000°N, 16.0000°E)
Time: 00:16:58
(UTC+02:00)

Envisat - Pass Details

Date: 25 April 2024
Orbit: 762 x 764 km, 98.3° (Epoch: 27 May)

Event Time Altitude Azimuth Distance (km) Brightness Sun altitude
Rises 04:28:00 0° 13° (NNE) 3,239 7.1 -13.8°
Reaches altitude 10° 04:30:18 10° 12° (NNE) 2,308 6.2 -13.5°
Maximum altitude 04:35:24 85° 286° (WNW) 773 3.0 -12.7°
Drops below altitude 10° 04:40:28 10° 198° (SSW) 2,290 5.0 -12.0°
Enters shadow 04:40:41 - 198° (SSW) 2,380 5.1 -12.0°
